Hourly Data Report for March 05, 2012

All times are specified in Local Standard Time (LST). Add 1 hour to adjust for Daylight Saving Time where and when it is observed.

HALIFAX STANFIELD INT'L A
NOVA SCOTIA

44°52'48.060" N
63°30'00.050" W
145.40 m
8202250
71395
YHZ

Download Data

Hourly Data (March 2012)
Hourly Data Report for March 5, 2012
TIME Temp Definition
°C
Dew Point Definition
°C
Rel Hum Definition
%
Wind Dir Definition
10's deg

Wind Spd Definition
km/h
Visibility Definition
km
Stn Press Definition
kPa
Hmdx Definition


Wind Chill Definition


Weather Definition


00:00 -0.5 -0.7 99 36 15 1.6 98.15   -5 Snow,Fog
01:00 -0.5 -0.9 97 1 17 3.2 98.08   -5 Snow,Fog
02:00 -0.6 -0.9 98 2 11 4.8 98.09   -4 Snow,Fog
03:00 -0.7 -1.1 97 36 13 2.4 98.01   -5 Snow,Fog
04:00 -0.8 -1.2 97 31 15 4.8 98.07   -5 Snow Showers,Fog
05:00 -0.9 -1.2 98 32 11 3.2 98.12   -5 Snow Showers,Fog
06:00 -1.7 -2.0 98 30 7 4.8 98.20   -4 Snow Showers,Fog
07:00 -1.5 -1.9 97 27 7 9.7 98.30   -4 Fog
08:00 -1.0 -1.4 97 27 11 3.2 98.46   -5 Snow Showers,Fog
09:00 -0.5 -0.8 98 25 15 2.4 98.58   -5 Snow Showers,Fog
10:00 0.2 -0.3 96 25 11 1.6 98.66     Snow Showers,Fog
11:00 0.9 0.2 95 23 15 1.2 98.78     Snow Showers,Fog
12:00 1.6 0.5 92 23 15 4.0 98.87     Snow Showers,Fog
13:00 2.5 0.7 88 21 22 24.1 98.94     Cloudy
14:00 3.6 0.7 81 23 22 24.1 98.96     Mostly Cloudy
15:00 2.3 0.3 87 22 32 19.3 99.06     Mostly Cloudy
16:00 0.3 -0.5 94 28 9 4.8 99.20     Snow Showers
17:00 -0.8 -1.4 96 36 15 2.0 99.35   -5 Snow Showers
18:00 -1.0 -1.6 96 34 13 4.0 99.52   -5 Snow Showers
19:00 -1.3 -1.9 96 36 9 6.4 99.66   -5 Snow Showers
20:00 -1.3 -2.2 94 34 4 8.0 99.82   -3 Snow Showers
21:00 -2.1 -2.7 96 1 6 16.1 99.92   -4 Mostly Cloudy
22:00 -2.5 -3.1 96 2 11 4.8 99.96   -7 Snow Showers
23:00 -3.2 -4.0 94   0 6.4 100.15     Snow Showers

Notes on Data Quality.

Legend

  • E = Estimated
  • M = Missing
  • NA = Not Available
Date modified: